Location: Barrio Las Umbrías
(40.4173°N, 4.8685°W)
Time: 13:05:08
(UTC+00:00)

IRS-1A Rocket - Pass Details

Date: 17 August 2022
Orbit: 852 x 931 km, 99.1° (Epoch: 28 September)

Event Time Altitude Azimuth Distance (km) Brightness Sun altitude
Exits shadow 20:45:43 21° 153° (SSE) 1,838 5.5 -16.4°
Maximum altitude 20:49:30 72° 73° (ENE) 907 4.2 -17.0°
Drops below altitude 10° 20:55:00 10° 350° (N) 2,494 7.3 -17.9°
Sets 20:57:22 0° 349° (N) 3,431 8.1 -18.2°
